Regional Weather Roundup
Issued by NWS Memphis, TN

Home | Current Version | Previous Version | Text Only | Print | Product List | Glossary On
Versions: 1 2 3 4 5 6 7 8 9 10 11 12 13 14 15 16 17 18 19 20 21 22 23 24 25 26 27 28 29 30 31 32 33 34 35 36 37 38 39 40 41 42 43 44 45 46 47 48 49 50
000
ASUS44 KMEG 292310
RWRMEG
MEMPHIS CWA HOURLY WEATHER ROUNDUP
NATIONAL WEATHER SERVICE MEMPHIS TN
600 PM CDT MON AUG 29 2016

...WEST TENNESSEE...

CITY           SKY/WX    TMP DP  RH WIND       PRES   REMARKS
MEMPHIS INTL   CLOUDY    93  70  46 E10       30.02F HX  99
NWS MEMPHIS      N/A     87 N/A N/A MISG        N/A
JACKSON        MOSUNNY   88  76  67 NE5       30.04F HX  99
LEXINGTON      SUNNY     88  73  62 NE5       30.04F HX  96
DYERSBURG      SUNNY     90  75  62 MISG      30.03F HX 100
UNION CITY     SUNNY     90  77  66 E7        30.04F HX 102
PARIS          SUNNY     88  75  66 E5        30.08S HX  97


...EASTERN ARKANSAS...

CITY           SKY/WX    TMP DP  RH WIND       PRES   REMARKS
JONESBORO      MOSUNNY   88  72  58 E12       30.03S HX  94
WEST MEMPHIS   CLOUDY    88  75  65 NE6       30.01S HX  97
BATESVILLE     MOSUNNY   91  73  55 E9        30.05F HX 100
NEWPORT        CLOUDY    89  75  63 NE10      30.04S HX  99
WALNUT RIDGE   SUNNY     90  73  58 NE9       30.04S HX  98
BLYTHEVILLE    SUNNY     90  77  65 NE6       30.04F HX 103
SEARCY         SUNNY     90  76  63 NE12      30.04F HX 101
STUTTGART      CLOUDY    88  75  66 E6        30.03R THUNDER HX  97
PINE BLUFF     MOSUNNY   83  75  77 N3        30.01S HX  90
MONTICELLO     TSTM      83  71  67 NE16G36   30.01R


...NORTH MISSISSIPPI...

CITY           SKY/WX    TMP DP  RH WIND       PRES   REMARKS
TUPELO         SUNNY     91  70  49 NE9       30.00F HX  96
OXFORD         MOSUNNY   88  68  51 NE8       30.03R HX  91
BATESVILLE     CLOUDY    86  73  63 N3        30.01F HX  93
OLIVE BRANCH   PTSUNNY  N/A N/A N/A NE9       30.02S
TUNICA         CLOUDY    84  77  79 N5        30.02S HX  94
CLARKSDALE     SUNNY     79  79 100 CALM      30.01S
CORINTH        SUNNY     82  72  69 NE8       30.03F
GREENWOOD      MOSUNNY   93  71  48 NE6       29.98R HX 100
COLUMBUS       SUNNY     93  74  54 NE9       29.97F HX 102
GOLDEN TRIANGL MOSUNNY   91  66  43 E12       29.97F HX  94


...SOUTHEAST MISSOURI...

CITY           SKY/WX    TMP DP  RH WIND       PRES   REMARKS
KENNETT        SUNNY     90  77  66 NE10      30.03S HX 102
WEST PLAINS    SUNNY     88  70  55 SE6       30.13S HX  93
POPLAR BLUFF   SUNNY     89  74  60 NE6       30.05F HX  98
CAPE GIRARDEAU SUNNY     90  72  55 NE9       30.06F HX  97


...NORTHWEST ALABAMA...

CITY           SKY/WX    TMP DP  RH WIND       PRES   REMARKS
MUSCLE SHOALS  SUNNY     91  68  46 E7        30.03F HX  95


...MIDDLE TENNESSEE...

CITY           SKY/WX    TMP DP  RH WIND       PRES   REMARKS
NASHVILLE      MOSUNNY   90  71  53 NE9       30.08F HX  96
CLARKSVILLE    MOSUNNY   88  74  63 E6        30.07F HX  96
COLUMBIA       SUNNY     90  72  55 NE8       30.06S HX  96


...WESTERN KENTUCKY...

CITY           SKY/WX    TMP DP  RH WIND       PRES   REMARKS
PADUCAH        SUNNY     89  73  59 NE8       30.06F HX  97
FORT CAMPBELL  SUNNY     88  74  63 NE9       30.07F HX  97


...CENTRAL ARKANSAS...

CITY           SKY/WX    TMP DP  RH WIND       PRES   REMARKS
LITTLE ROCK    PTSUNNY   93  73  52 NE12      30.02S HX 102


SKY/WX REPORTED AS FAIR MEANS FEW OR NO CLOUDS BELOW
12 THOUSAND FEET.




USA.gov is the U.S. government's official web portal to all federal, state and local government web resources and services.